751  
ASUS46 KEKA 281515  
RWREKA  
EUREKA AREA WEATHER ROUNDUP  
NATIONAL WEATHER SERVICE EUREKA CA  
800 AM PDT TUE MAR 28 2017  
 
NOTE: "FAIR" INDICATES FEW OR NO CLOUDS BELOW 12,000 FEET WITH NO  
SIGNIFICANT WEATHER AND/OR S TO VISIBILITY
.  
 
SOUTHWEST OREGON...  
 
CITY SKY/WX TMP DP RH WIND PRES REMARKS
 
MEDFORD CLOUDY 44 40 85 CALM 30.39S  
KLAMATH FALLS CLOUDY 34 31 88 CALM 30.33R  
NORTH BEND CLOUDY 46 43 87 SE8 30.38R  
ROSEBURG CLOUDY 45 42 89 CALM 30.38F  
SEXTON SUMMIT CLOUDY 36 29 75 S8 30.32S  
BROOKINGS CLOUDY 44 42 93 CALM 30.39F  
 
NORTHWEST CALIFORNIA...  
 
CITY SKY/WX TMP DP RH WIND PRES REMARKS
 
CRESCENT CITY CLOUDY 46 43 89 E3 30.40F  
MCKINLEYVILLE CLEAR 41 40 96 E5 30.40R  
EUREKA CLEAR 43 32 65 E3 30.41R  
FORTUNA N/A 39 39 100 S6 30.42R  
WEAVERVILLE PTSUNNY 32 32 100 CALM 30.35R  
TRINITY CENTER CLOUDY 36 36 100 CALM 30.34R  
UKIAH SUNNY 42 40 92 NW5 30.30R  
 
NORTH & CENTRAL CALIFORNIA...  
 
CITY SKY/WX TMP DP RH WIND PRES REMARKS
 
YREKA CLOUDY 37 36 96 CALM 30.39R  
MOUNT SHASTA PTSUNNY 40 31 70 NW7 30.30R  
REDDING SUNNY 50 38 63 N7 30.29R  
RED BLUFF SUNNY 51 38 60 N10 30.29R  
CHICO NOT AVBL  
YUBA CITY SUNNY 51 40 65 NW21 30.20R  
SACRAMENTO SUNNY 52 41 66 NW12G21 30.18R  
SANTA ROSA SUNNY 50 41 71 NE8 30.25R  
NAPA SUNNY 49 44 83 NW8 30.24R  
SAN FRANCISCO MOSUNNY 53 45 74 NW5 30.24R  
OAKLAND MOSUNNY 54 45 71 N3 30.25R  
SALINAS SUNNY 47 45 93 CALM 30.23R  
MONTEREY SUNNY 51 49 92 S3 30.23R  
 

 
 
 
CLICK HERE TO GO TO PREVIOUS BULLETINS.

The Nexlab CA Page Main Text Page